Junction, TX

10:29 AM CDT on August 17, 2019 (GMT -0500)
Kimble County

Weather History for KJCT - July, 2019

Change the Weather History Date:

Monday, July 15, 2019

  Actual Average Record
Temperature  
Mean Temperature 86 °F -  
Max Temperature 102 °F 92 °F 102 °F (2000)
Min Temperature 71 °F 68 °F 61 °F (2004)
Cooling Degree Days 22    
Growing Degree Days 36 (Base 50)    
Moisture  
Dew Point 68 °F    
Average Humidity 58    
Maximum Humidity 91    
Minimum Humidity 25    
Precipitation  
Precipitation 0.00 in - - ()
Sea Level Pressure  
Sea Level Pressure 29.86 in    
Wind  
Wind Speed 4 mph (SSE)    
Max Wind Speed 14 mph    
Max Gust Speed 20 mph    
Visibility 10 miles    
Events Thunderstorm    
Averages and records for this station are not official NWS values.
T = Trace of Precipitation, MM = Missing Value Source: NWS Daily Summary

Daily Weather History Graph

Daily Weather History Graph

Search for Another Location

Airport or City:

Astronomy

Jul. 15, 2019 Rise Set
Actual Time 6:46 AM CDT 8:42 PM CDT
Civil Twilight 6:19 AM CDT 9:09 PM CDT
Nautical Twilight 5:47 AM CDT 9:42 PM CDT
Astronomical Twilight 5:12 AM CDT 10:17 PM CDT
Moon 8:00 PM CDT (7/15) 5:36 AM CDT (7/15)
Length of Visible Light 14h 49m
Length of Day
13h 55m
Waxing Gibbous, 99% of the Moon is Illuminated
Jul 15
Waxing Gibbous
Jul 16
Full
Jul 24
Last Quarter
Jul 31
New
Aug 7
First Quarter

Hourly Weather History & Observations

Time (CDT) Temp. Heat Index Dew Point Humidity Pressure Visibility Wind Dir Wind Speed Gust Speed Precip Events Conditions
12:51 AM 79.0 °F - 69.1 °F 72% 29.87 in 10.0 mi East 4.6 mph - N/A   Clear
1:51 AM 78.1 °F - 69.1 °F 74% 29.87 in 10.0 mi ENE 3.5 mph - N/A   Clear
2:51 AM 79.0 °F - 70.0 °F 74% 29.86 in 10.0 mi Calm Calm - N/A   Clear
3:51 AM 77.0 °F - 70.0 °F 79% 29.85 in 10.0 mi Calm Calm - N/A   Clear
4:51 AM 73.0 °F - 69.1 °F 87% 29.85 in 10.0 mi Calm Calm - N/A   Clear
5:51 AM 72.0 °F - 69.1 °F 91% 29.86 in 10.0 mi Calm Calm - N/A   Clear
6:51 AM 72.0 °F - 69.1 °F 91% 29.88 in 10.0 mi Calm Calm - N/A   Clear
7:51 AM 75.0 °F - 70.0 °F 84% 29.89 in 10.0 mi Calm Calm - N/A   Clear
8:51 AM 79.0 °F - 71.1 °F 77% 29.91 in 10.0 mi ESE 3.5 mph - N/A   Clear
9:51 AM 84.0 °F 89.6 °F 72.0 °F 67% 29.90 in 8.0 mi South 3.5 mph - N/A   Clear
10:51 AM 89.1 °F 96.0 °F 72.0 °F 57% 29.90 in 9.0 mi Calm Calm - N/A   Clear
11:51 AM 91.0 °F 96.6 °F 70.0 °F 50% 29.89 in 10.0 mi North - - N/A   Scattered Clouds
12:51 PM 96.1 °F 98.3 °F 64.0 °F 35% 29.87 in 10.0 mi Variable 4.6 mph - N/A   Clear
1:51 PM 97.0 °F 99.3 °F 64.0 °F 34% 29.85 in 10.0 mi SE 4.6 mph - N/A   Clear
2:51 PM 99.0 °F 100.5 °F 62.1 °F 30% 29.81 in 10.0 mi Calm Calm - N/A   Mostly Cloudy
3:51 PM 98.1 °F 100.7 °F 64.0 °F 33% 29.81 in 10.0 mi SSE 13.8 mph - N/A   Mostly Cloudy
4:51 PM 97.0 °F 101.0 °F 66.9 °F 37% 29.79 in 10.0 mi SW 8.1 mph - N/A   Clear
5:51 PM 97.0 °F 101.0 °F 66.9 °F 37% 29.78 in 10.0 mi SSE 13.8 mph 19.6 mph N/A   Scattered Clouds
6:40 PM 93.9 °F 97.0 °F 66.0 °F 40% 29.91 in 10.0 mi South 9.2 mph - N/A Thunderstorm Clear
6:51 PM 93.0 °F 95.9 °F 66.0 °F 41% 29.79 in 10.0 mi South 13.8 mph - N/A   Clear
7:23 PM 91.0 °F 95.2 °F 68.0 °F 47% 29.92 in 10.0 mi Variable 5.8 mph - N/A Thunderstorm Overcast
7:39 PM 89.1 °F 93.7 °F 69.1 °F 52% 29.92 in 10.0 mi NW 10.4 mph - N/A   Overcast
7:51 PM 88.0 °F 92.1 °F 69.1 °F 53% 29.81 in 10.0 mi NW 8.1 mph - N/A   Overcast
8:51 PM 88.0 °F 92.1 °F 69.1 °F 53% 29.82 in 10.0 mi NW 3.5 mph - N/A   Mostly Cloudy
9:51 PM 84.0 °F 88.4 °F 70.0 °F 63% 29.83 in 10.0 mi Calm Calm - N/A   Clear
10:51 PM 82.0 °F 85.9 °F 70.0 °F 67% 29.85 in 10.0 mi Calm Calm - N/A   Clear
11:51 PM 82.0 °F 85.5 °F 69.1 °F 65% 29.86 in 10.0 mi South 4.6 mph - N/A   Clear